^^
Saratoga-Weather Station Historical Data
Daily Summary for February 16, 2021 Units:  English    Metric   Both
Daily Weekly Monthly Yearly Custom
  High: Low: Average:
Temperature: 43.9 °F 38.5 °F 40.5 °F
Dew Point: 39.2 °F 35.1 °F 37.2 °F
Humidity: 95% 79% 88%
Wind Speed: 10.1mph 0mph 3.2mph
Wind Gust: 12mph - -
Wind- - West
Pressure: 30.3 in 30.2 in -
Precipitation: 0.18 in    
Historical Graphs
 
 
Tabular Data for February 16, 2021
Time Temperature Dew Point Pressure Wind Wind Speed Wind Gust Humidity Rainfall Rate (Hourly) solar
00:04 40.5 °F 36.3 °F 30.2 in WNW 2.9 mph 6 mph 85% 0 in 0 W/m2
00:09 40.3 °F 36.1 °F 30.2 in WNW 2 mph 9 mph 85% 0 in 0 W/m2
00:14 40.3 °F 36.5 °F 30.2 in West 2 mph 7 mph 86% 0 in 0 W/m2
00:19 40.3 °F 36.5 °F 30.2 in WSW 4 mph 9 mph 86% 0 in 0 W/m2
00:24 40.3 °F 36.5 °F 30.2 in WNW 2.9 mph 7 mph 86% 0 in 0 W/m2
00:29 40.5 °F 36.3 °F 30.2 in West 6 mph 11 mph 85% 0 in 0 W/m2
00:34 40.5 °F 36 °F 30.2 in WNW 6 mph 8 mph 84% 0 in 0 W/m2
00:39 40.6 °F 36.1 °F 30.2 in NW 2 mph 10 mph 84% 0 in 0 W/m2
00:44 40.6 °F 36.1 °F 30.2 in WNW 2.9 mph 4 mph 84% 0 in 0 W/m2
00:49 40.6 °F 36.1 °F 30.2 in WNW 2 mph 9 mph 84% 0 in 0 W/m2
00:54 40.5 °F 36 °F 30.2 in NW 2 mph 4 mph 84% 0 in 0 W/m2
00:59 40.5 °F 36.3 °F 30.2 in WSW 4.9 mph 6 mph 85% 0 in 0 W/m2
01:04 40.5 °F 36.3 °F 30.2 in West 8.9 mph 9 mph 85% 0 in 0 W/m2
01:09 40.5 °F 36 °F 30.2 in WSW 2 mph 4 mph 84% 0 in 0 W/m2
01:14 40.3 °F 36.1 °F 30.2 in WNW 6.9 mph 8 mph 85% 0 in 0 W/m2
01:19 40.3 °F 36.1 °F 30.2 in West 2.9 mph 8 mph 85% 0 in 0 W/m2
01:24 40.3 °F 36.1 °F 30.2 in West 2.9 mph 7 mph 85% 0 in 0 W/m2
01:29 40.1 °F 36.3 °F 30.2 in WSW 4.9 mph 7 mph 86% 0 in 0 W/m2
01:34 39.9 °F 36.3 °F 30.2 in West 6 mph 6 mph 87% 0.01 in 0 W/m2
01:39 39.7 °F 36.1 °F 30.2 in SW 4.9 mph 7 mph 87% 0.01 in 0 W/m2
01:44 39.7 °F 36.5 °F 30.2 in West 4 mph 8 mph 88% 0.01 in 0 W/m2
01:49 39.6 °F 36.3 °F 30.2 in WSW 4 mph 7 mph 88% 0.01 in 0 W/m2
01:54 39.6 °F 36.3 °F 30.2 in NW 4 mph 7 mph 88% 0.01 in 0 W/m2
01:59 39.6 °F 36.3 °F 30.2 in West 6.9 mph 9 mph 88% 0.01 in 0 W/m2
02:04 39.6 °F 36.3 °F 30.2 in West 2.9 mph 8 mph 88% 0.01 in 0 W/m2
02:09 39.4 °F 36.5 °F 30.2 in WNW 4.9 mph 8 mph 89% 0.01 in 0 W/m2
02:14 39.4 °F 36.5 °F 30.2 in WSW 8.1 mph 8 mph 89% 0.01 in 0 W/m2
02:19 39.4 °F 36.5 °F 30.2 in WNW 2.9 mph 9 mph 89% 0.01 in 0 W/m2
02:24 39.4 °F 36.5 °F 30.2 in West 8.1 mph 8 mph 89% 0.01 in 0 W/m2
02:29 39.2 °F 36 °F 30.2 in West 8.1 mph 8 mph 88% 0.01 in 0 W/m2
02:34 39.2 °F 36 °F 30.2 in WSW 2.9 mph 10 mph 88% 0 in 0 W/m2
02:39 39 °F 35.8 °F 30.2 in West 4 mph 8 mph 88% 0 in 0 W/m2
02:44 39 °F 35.8 °F 30.2 in West 6 mph 7 mph 88% 0 in 0 W/m2
02:49 39 °F 35.4 °F 30.2 in WSW 4 mph 8 mph 87% 0 in 0 W/m2
02:54 39 °F 35.2 °F 30.2 in West 6 mph 10 mph 86% 0 in 0 W/m2
02:59 39.2 °F 35.1 °F 30.2 in West 8.1 mph 9 mph 85% 0 in 0 W/m2
03:04 39.4 °F 35.2 °F 30.2 in WNW 8.1 mph 9 mph 85% 0 in 0 W/m2
03:09 39.4 °F 35.2 °F 30.2 in West 2 mph 4 mph 85% 0 in 0 W/m2
03:14 39.6 °F 35.4 °F 30.2 in NW 4 mph 8 mph 85% 0 in 0 W/m2
03:19 39.6 °F 35.1 °F 30.2 in NW 4 mph 7 mph 84% 0 in 0 W/m2
03:24 39.7 °F 35.2 °F 30.2 in West 6 mph 8 mph 84% 0 in 0 W/m2
03:29 39.6 °F 35.4 °F 30.2 in West 8.9 mph 9 mph 85% 0 in 0 W/m2
03:34 39.6 °F 35.8 °F 30.2 in WNW 4 mph 9 mph 86% 0 in 0 W/m2
03:39 39.6 °F 35.8 °F 30.2 in WSW 4.9 mph 8 mph 86% 0 in 0 W/m2
03:44 39.6 °F 35.8 °F 30.2 in West 10.1 mph 12 mph 86% 0 in 0 W/m2
03:49 39.7 °F 35.6 °F 30.2 in NW 6.9 mph 10 mph 85% 0 in 0 W/m2
03:54 39.7 °F 36 °F 30.2 in West 2.9 mph 12 mph 86% 0 in 0 W/m2
03:59 39.4 °F 35.8 °F 30.2 in WNW 4 mph 8 mph 87% 0 in 0 W/m2
04:04 39.4 °F 36.1 °F 30.2 in WSW 2.9 mph 7 mph 88% 0 in 0 W/m2
04:09 39.4 °F 35.8 °F 30.2 in West 2.9 mph 7 mph 87% 0 in 0 W/m2
04:14 39.6 °F 36 °F 30.2 in West 2.9 mph 6 mph 87% 0 in 0 W/m2
04:19 39.6 °F 36.3 °F 30.2 in WNW 2.9 mph 4 mph 88% 0 in 0 W/m2
04:24 39.4 °F 36.1 °F 30.2 in West 2.9 mph 5 mph 88% 0 in 0 W/m2
04:29 39.4 °F 36.1 °F 30.2 in West 4 mph 4 mph 88% 0 in 0 W/m2
04:34 39.4 °F 36.1 °F 30.2 in WSW 4 mph 7 mph 88% 0 in 0 W/m2
04:39 39.4 °F 36.1 °F 30.2 in West 6.9 mph 8 mph 88% 0 in 0 W/m2
04:44 39.6 °F 36.3 °F 30.2 in West 4 mph 6 mph 88% 0 in 0 W/m2
04:49 39.6 °F 36.3 °F 30.2 in WSW 2 mph 4 mph 88% 0 in 0 W/m2
04:54 39.4 °F 36.1 °F 30.2 in West 2 mph 4 mph 88% 0 in 0 W/m2
04:59 39.4 °F 36.1 °F 30.2 in NW 2.9 mph 5 mph 88% 0 in 0 W/m2
05:04 39.2 °F 36 °F 30.2 in West 4 mph 8 mph 88% 0 in 0 W/m2
05:09 39.2 °F 36 °F 30.2 in West 2.9 mph 7 mph 88% 0 in 0 W/m2
05:14 39.2 °F 35.6 °F 30.2 in WNW 2 mph 8 mph 87% 0 in 0 W/m2
05:19 39.2 °F 35.4 °F 30.2 in West 4 mph 5 mph 86% 0 in 0 W/m2
05:24 39 °F 35.4 °F 30.2 in West 2 mph 4 mph 87% 0 in 0 W/m2
05:29 38.8 °F 35.2 °F 30.2 in WNW 2.9 mph 4 mph 87% 0 in 0 W/m2
05:35 38.8 °F 35.2 °F 30.2 in West 2 mph 6 mph 87% 0 in 0 W/m2
05:40 38.8 °F 35.6 °F 30.2 in WNW 2 mph 4 mph 88% 0 in 0 W/m2
05:45 38.8 °F 35.6 °F 30.2 in West 2.9 mph 4 mph 88% 0 in 0 W/m2
05:50 38.8 °F 35.6 °F 30.2 in WNW 2.9 mph 5 mph 88% 0 in 0 W/m2
05:55 38.8 °F 35.6 °F 30.2 in WNW 2.9 mph 3 mph 88% 0 in 0 W/m2
06:00 38.8 °F 35.6 °F 30.2 in West 4 mph 6 mph 88% 0 in 0 W/m2
06:05 38.8 °F 35.6 °F 30.2 in WSW 4 mph 6 mph 88% 0 in 0 W/m2
06:10 38.8 °F 35.6 °F 30.2 in WNW 4 mph 9 mph 88% 0 in 0 W/m2
06:15 38.8 °F 35.6 °F 30.2 in NW 2.9 mph 8 mph 88% 0 in 0 W/m2
06:20 38.8 °F 35.6 °F 30.2 in West 2 mph 6 mph 88% 0 in 0 W/m2
06:25 38.8 °F 35.6 °F 30.2 in West 4 mph 6 mph 88% 0 in 0 W/m2
06:30 38.8 °F 35.6 °F 30.2 in SW 0.9 mph 4 mph 88% 0 in 0 W/m2
06:35 38.8 °F 35.6 °F 30.2 in WSW 2.9 mph 4 mph 88% 0 in 0 W/m2
06:40 38.7 °F 35.4 °F 30.2 in WNW 4 mph 5 mph 88% 0 in 5 W/m2
06:45 38.7 °F 35.4 °F 30.2 in West 2.9 mph 7 mph 88% 0 in 7 W/m2
06:50 38.5 °F 35.6 °F 30.2 in SW 4 mph 7 mph 89% 0 in 9 W/m2
06:55 38.5 °F 35.6 °F 30.2 in West 2.9 mph 5 mph 89% 0 in 9 W/m2
07:00 38.7 °F 35.8 °F 30.2 in West 4 mph 8 mph 89% 0 in 9 W/m2
07:05 38.7 °F 35.8 °F 30.2 in West 2.9 mph 6 mph 89% 0 in 11 W/m2
07:10 38.7 °F 35.8 °F 30.2 in WNW 2.9 mph 4 mph 89% 0 in 16 W/m2
07:15 38.7 °F 35.8 °F 30.2 in West 6.9 mph 9 mph 89% 0 in 23 W/m2
07:20 38.7 °F 35.8 °F 30.2 in West 4 mph 8 mph 89% 0 in 25 W/m2
07:25 38.8 °F 36 °F 30.2 in West 2.9 mph 7 mph 89% 0 in 16 W/m2
07:30 38.8 °F 36 °F 30.2 in WNW 2 mph 10 mph 89% 0 in 26 W/m2
07:35 38.8 °F 36 °F 30.2 in SW 6 mph 8 mph 89% 0 in 51 W/m2
07:40 39 °F 35.8 °F 30.2 in WNW 4 mph 7 mph 88% 0 in 67 W/m2
07:45 39 °F 35.8 °F 30.3 in WNW 4.9 mph 8 mph 88% 0 in 72 W/m2
07:50 39.2 °F 36 °F 30.3 in WNW 4.9 mph 8 mph 88% 0 in 62 W/m2
07:55 39.4 °F 36.1 °F 30.3 in WSW 4 mph 9 mph 88% 0 in 54 W/m2
08:00 39.4 °F 36.1 °F 30.3 in West 2.9 mph 8 mph 88% 0 in 76 W/m2
08:05 39.4 °F 36.1 °F 30.3 in WNW 0.9 mph 9 mph 88% 0 in 81 W/m2
08:10 39.6 °F 36 °F 30.3 in WNW 2 mph 9 mph 87% 0 in 77 W/m2
08:15 39.7 °F 36.1 °F 30.3 in West 2 mph 6 mph 87% 0 in 90 W/m2
08:20 39.7 °F 36.1 °F 30.3 in West 2 mph 9 mph 87% 0 in 93 W/m2
08:25 39.7 °F 36.1 °F 30.3 in WSW 4 mph 8 mph 87% 0 in 102 W/m2
08:30 39.9 °F 36.3 °F 30.3 in West 0.9 mph 9 mph 87% 0 in 102 W/m2
08:35 39.9 °F 36.3 °F 30.3 in WNW 4 mph 7 mph 87% 0 in 105 W/m2
08:40 39.9 °F 36.1 °F 30.3 in West 2 mph 9 mph 86% 0 in 144 W/m2
08:45 40.3 °F 36.7 °F 30.3 in WNW 2.9 mph 7 mph 87% 0 in 255 W/m2
08:50 40.5 °F 36.7 °F 30.3 in West 2.9 mph 9 mph 86% 0 in 200 W/m2
08:55 40.6 °F 36.9 °F 30.3 in WNW 4 mph 6 mph 86% 0 in 172 W/m2
09:00 40.6 °F 36.9 °F 30.3 in West 8.1 mph 9 mph 86% 0 in 169 W/m2
09:05 40.6 °F 36.9 °F 30.3 in West 6 mph 8 mph 86% 0 in 193 W/m2
09:10 40.6 °F 36.5 °F 30.3 in West 6.9 mph 9 mph 85% 0 in 160 W/m2
09:15 40.6 °F 36.5 °F 30.3 in West 6 mph 11 mph 85% 0 in 165 W/m2
09:20 40.6 °F 36.5 °F 30.3 in West 6 mph 7 mph 85% 0 in 163 W/m2
09:25 40.8 °F 37 °F 30.3 in NW 4.9 mph 11 mph 86% 0 in 165 W/m2
09:30 40.8 °F 37 °F 30.3 in WSW 2.9 mph 9 mph 86% 0 in 148 W/m2
09:35 40.8 °F 37 °F 30.3 in WSW 2 mph 5 mph 86% 0 in 171 W/m2
09:40 41.2 °F 37.4 °F 30.3 in NW 2 mph 9 mph 86% 0 in 178 W/m2
09:46 41.2 °F 37.4 °F 30.3 in WNW 2.9 mph 9 mph 86% 0 in 207 W/m2
09:51 41.4 °F 37.2 °F 30.3 in West 2 mph 5 mph 85% 0 in 195 W/m2
09:56 41.4 °F 37.2 °F 30.3 in WNW 2.9 mph 4 mph 85% 0 in 202 W/m2
10:01 41.5 °F 37.4 °F 30.3 in WNW 6.9 mph 7 mph 85% 0 in 141 W/m2
10:06 41.5 °F 37 °F 30.3 in WSW 2 mph 8 mph 84% 0 in 128 W/m2
10:11 41.5 °F 37.4 °F 30.3 in WSW 6.9 mph 8 mph 85% 0 in 155 W/m2
10:16 41.5 °F 37.4 °F 30.3 in NW 4.9 mph 9 mph 85% 0 in 156 W/m2
10:21 41.5 °F 37.4 °F 30.3 in West 2 mph 4 mph 85% 0 in 179 W/m2
10:26 41.7 °F 37.6 °F 30.3 in NW 8.1 mph 9 mph 85% 0 in 257 W/m2
10:31 41.9 °F 37.8 °F 30.3 in NW 4 mph 6 mph 85% 0 in 257 W/m2
10:36 42.1 °F 37.9 °F 30.3 in WSW 6 mph 9 mph 85% 0 in 243 W/m2
10:41 42.3 °F 37.8 °F 30.3 in West 4 mph 7 mph 84% 0 in 251 W/m2
10:46 42.4 °F 37.6 °F 30.3 in West 6.9 mph 11 mph 83% 0 in 234 W/m2
10:51 42.4 °F 37.6 °F 30.3 in WSW 2.9 mph 10 mph 83% 0 in 239 W/m2
10:56 42.6 °F 37.8 °F 30.3 in WSW 4 mph 8 mph 83% 0 in 241 W/m2
11:01 42.6 °F 37.8 °F 30.3 in WNW 4 mph 9 mph 83% 0 in 160 W/m2
11:06 42.6 °F 37.8 °F 30.3 in WSW 4 mph 10 mph 83% 0 in 234 W/m2
11:11 42.6 °F 37.8 °F 30.3 in WNW 4.9 mph 8 mph 83% 0 in 160 W/m2
11:16 42.8 °F 37.8 °F 30.3 in NW 6 mph 10 mph 82% 0 in 278 W/m2
11:21 43.2 °F 38.3 °F 30.3 in NNW 4.9 mph 5 mph 83% 0 in 318 W/m2
11:26 43.2 °F 37.8 °F 30.3 in West 6.9 mph 11 mph 81% 0 in 313 W/m2
11:31 43.3 °F 37.9 °F 30.3 in WSW 4 mph 8 mph 81% 0 in 330 W/m2
11:36 43.5 °F 37.4 °F 30.3 in NW 2.9 mph 9 mph 79% 0 in 258 W/m2
11:41 43.7 °F 37.6 °F 30.3 in SW 4 mph 10 mph 79% 0 in 250 W/m2
11:46 43.7 °F 37.6 °F 30.3 in NW 6 mph 10 mph 79% 0 in 151 W/m2
11:51 43.9 °F 38.1 °F 30.3 in WNW 6.9 mph 8 mph 80% 0 in 141 W/m2
11:56 43.5 °F 37.4 °F 30.3 in NW 6.9 mph 10 mph 79% 0 in 227 W/m2
12:01 43.5 °F 37.4 °F 30.3 in WSW 4 mph 8 mph 79% 0 in 111 W/m2
12:06 43.5 °F 37.4 °F 30.3 in West 6.9 mph 9 mph 79% 0 in 100 W/m2
12:11 43.3 °F 37.2 °F 30.3 in WNW 6.9 mph 7 mph 79% 0 in 111 W/m2
12:16 43.3 °F 37.6 °F 30.3 in West 8.1 mph 8 mph 80% 0 in 62 W/m2
12:21 43.2 °F 37.4 °F 30.3 in WSW 2.9 mph 9 mph 80% 0 in 88 W/m2
12:26 43.2 °F 38.1 °F 30.3 in WNW 0.9 mph 4 mph 82% 0 in 172 W/m2
12:31 43.2 °F 38.1 °F 30.3 in WNW 4 mph 10 mph 82% 0 in 264 W/m2
12:36 43.3 °F 37.9 °F 30.3 in NW 4 mph 6 mph 81% 0 in 97 W/m2
12:41 43.5 °F 37.8 °F 30.3 in West 2.9 mph 7 mph 80% 0 in 62 W/m2
12:46 43.3 °F 37.9 °F 30.3 in WSW 4.9 mph 10 mph 81% 0 in 70 W/m2
12:51 43.2 °F 37.8 °F 30.3 in NW 4.9 mph 11 mph 81% 0 in 91 W/m2
12:56 43 °F 38.1 °F 30.3 in WNW 2 mph 7 mph 83% 0 in 102 W/m2
13:01 43 °F 38.1 °F 30.3 in West 4 mph 11 mph 83% 0 in 127 W/m2
13:06 43 °F 38.5 °F 30.3 in WSW 2.9 mph 9 mph 84% 0 in 255 W/m2
13:11 43.2 °F 38.3 °F 30.3 in West 4 mph 10 mph 83% 0 in 151 W/m2
13:16 43.3 °F 38.8 °F 30.3 in NNW 2 mph 3 mph 84% 0 in 176 W/m2
13:21 43.3 °F 38.5 °F 30.3 in WNW 6.9 mph 10 mph 83% 0 in 214 W/m2
13:26 43.2 °F 38.3 °F 30.3 in WNW 4.9 mph 8 mph 83% 0 in 169 W/m2
13:31 43.2 °F 38.7 °F 30.3 in West 2 mph 9 mph 84% 0.01 in 167 W/m2
13:36 43 °F 38.5 °F 30.3 in WSW 2 mph 11 mph 84% 0.01 in 165 W/m2
13:41 42.8 °F 37.9 °F 30.3 in West 6 mph 11 mph 83% 0.01 in 192 W/m2
13:46 43 °F 38.5 °F 30.3 in WNW 4.9 mph 9 mph 84% 0.01 in 183 W/m2
13:51 42.8 °F 37.4 °F 30.3 in West 4 mph 8 mph 81% 0.01 in 178 W/m2
13:56 43 °F 37.6 °F 30.3 in NW 4.9 mph 6 mph 81% 0.01 in 174 W/m2
14:01 43 °F 37.6 °F 30.3 in WNW 8.9 mph 9 mph 81% 0.01 in 153 W/m2
14:06 43 °F 37.6 °F 30.3 in West 4 mph 10 mph 81% 0.01 in 148 W/m2
14:11 43 °F 37.6 °F 30.3 in WNW 8.1 mph 9 mph 81% 0.01 in 121 W/m2
14:16 43 °F 37.9 °F 30.3 in WNW 4.9 mph 10 mph 82% 0.01 in 139 W/m2
14:21 42.8 °F 37.9 °F 30.3 in WNW 8.1 mph 10 mph 83% 0.01 in 137 W/m2
14:26 42.4 °F 37.6 °F 30.3 in WSW 2 mph 10 mph 83% 0.01 in 144 W/m2
14:31 42.1 °F 37.9 °F 30.3 in WNW 4 mph 9 mph 85% 0 in 142 W/m2
14:36 42.1 °F 37.9 °F 30.3 in WNW 2.9 mph 6 mph 85% 0 in 181 W/m2
14:41 41.9 °F 37.9 °F 30.3 in SW 4.9 mph 9 mph 86% 0.01 in 193 W/m2
14:46 41.9 °F 37.9 °F 30.2 in SSW 4.9 mph 8 mph 86% 0.01 in 137 W/m2
14:51 41.9 °F 38.3 °F 30.2 in NW 2.9 mph 5 mph 87% 0.01 in 130 W/m2
14:56 41.9 °F 38.3 °F 30.2 in NW 8.9 mph 9 mph 87% 0.01 in 162 W/m2
15:01 41.7 °F 38.1 °F 30.2 in WNW 4 mph 8 mph 87% 0.01 in 207 W/m2
15:06 41.7 °F 38.1 °F 30.2 in WNW 6 mph 9 mph 87% 0.01 in 179 W/m2
15:11 41.7 °F 38.1 °F 30.2 in NW 4 mph 8 mph 87% 0.01 in 199 W/m2
15:16 41.7 °F 38.1 °F 30.2 in West 2 mph 10 mph 87% 0.02 in 169 W/m2
15:21 41.5 °F 38.3 °F 30.2 in West 2.9 mph 7 mph 88% 0.02 in 165 W/m2
15:26 41.5 °F 38.3 °F 30.2 in NW 0.9 mph 10 mph 88% 0.02 in 156 W/m2
15:31 41.7 °F 38.5 °F 30.2 in SW 6 mph 10 mph 88% 0.02 in 167 W/m2
15:36 41.7 °F 38.5 °F 30.2 in West 4 mph 8 mph 88% 0.02 in 195 W/m2
15:41 41.7 °F 38.5 °F 30.2 in NW 2.9 mph 4 mph 88% 0.02 in 155 W/m2
15:46 41.7 °F 38.5 °F 30.2 in WSW 8.9 mph 9 mph 88% 0.02 in 134 W/m2
15:51 41.7 °F 38.5 °F 30.2 in West 6.9 mph 9 mph 88% 0.02 in 151 W/m2
15:56 41.7 °F 38.5 °F 30.2 in West 6 mph 7 mph 88% 0.02 in 165 W/m2
16:01 41.7 °F 38.7 °F 30.2 in West 2.9 mph 6 mph 89% 0.02 in 153 W/m2
16:06 41.9 °F 38.8 °F 30.2 in WNW 2.9 mph 4 mph 89% 0.02 in 155 W/m2
16:11 41.9 °F 38.8 °F 30.2 in West 4 mph 9 mph 89% 0.02 in 148 W/m2
16:16 41.7 °F 38.7 °F 30.2 in NW 2.9 mph 8 mph 89% 0.01 in 97 W/m2
16:21 41.7 °F 38.7 °F 30.2 in West 0.9 mph 9 mph 89% 0.02 in 100 W/m2
16:26 41.7 °F 38.7 °F 30.2 in West 2 mph 4 mph 89% 0.02 in 77 W/m2
16:31 41.7 °F 38.7 °F 30.2 in WNW 6 mph 7 mph 89% 0.02 in 76 W/m2
16:36 41.5 °F 38.5 °F 30.2 in NW 4.9 mph 7 mph 89% 0.02 in 49 W/m2
16:41 41.5 °F 38.8 °F 30.2 in NW 0.9 mph 2 mph 90% 0.01 in 56 W/m2
16:46 41.5 °F 38.8 °F 30.2 in West 4 mph 4 mph 90% 0.01 in 40 W/m2
16:51 41.5 °F 38.8 °F 30.2 in Calm   2 mph 90% 0.01 in 46 W/m2
16:56 41.5 °F 38.8 °F 30.2 in NNW 2 mph 2 mph 90% 0.02 in 54 W/m2
17:01 41.5 °F 38.8 °F 30.2 in NW 2 mph 2 mph 90% 0.02 in 53 W/m2
17:06 41.4 °F 38.7 °F 30.2 in West 2 mph 2 mph 90% 0.02 in 56 W/m2
17:11 41.4 °F 39 °F 30.2 in NW 0.9 mph 3 mph 91% 0.02 in 56 W/m2
17:16 41.5 °F 39.2 °F 30.2 in WNW 0.9 mph 2 mph 91% 0.02 in 58 W/m2
17:21 41.5 °F 39.2 °F 30.2 in WNW 0.9 mph 4 mph 91% 0.02 in 51 W/m2
17:26 41.5 °F 39.2 °F 30.2 in WNW 2 mph 4 mph 91% 0.02 in 47 W/m2
17:31 41.5 °F 39.2 °F 30.2 in Calm     91% 0.02 in 21 W/m2
17:36 41.5 °F 39.2 °F 30.2 in WNW 0.9 mph 2 mph 91% 0.02 in 28 W/m2
17:41 41.5 °F 39.2 °F 30.2 in Calm   1 mph 91% 0.02 in 26 W/m2
17:46 41.5 °F 39.2 °F 30.2 in WNW 0.9 mph 2 mph 91% 0.02 in 23 W/m2
17:51 41.5 °F 39.2 °F 30.2 in WNW 0.9 mph 2 mph 91% 0.02 in 25 W/m2
17:56 41.5 °F 39.2 °F 30.2 in West 0.9 mph 3 mph 91% 0.02 in 23 W/m2
18:01 41.4 °F 39 °F 30.2 in West 0.9 mph 2 mph 91% 0.02 in 21 W/m2
18:06 41.4 °F 39.2 °F 30.2 in WNW 0.9 mph 2 mph 92% 0.02 in 14 W/m2
18:11 41.4 °F 39.2 °F 30.2 in West 0.9 mph 4 mph 92% 0.02 in 9 W/m2
18:16 41.4 °F 39.2 °F 30.2 in West 2 mph 3 mph 92% 0.02 in 7 W/m2
18:21 41.4 °F 39.2 °F 30.2 in West 0.9 mph 1 mph 92% 0.02 in 7 W/m2
18:26 41.4 °F 39.2 °F 30.2 in SW 2 mph 3 mph 92% 0.02 in 7 W/m2
18:31 41.2 °F 39 °F 30.2 in SW 0.9 mph 2 mph 92% 0.02 in 5 W/m2
18:36 41.2 °F 39 °F 30.2 in West 2.9 mph 3 mph 92% 0.02 in 0 W/m2
18:41 41.2 °F 39 °F 30.2 in Calm   3 mph 92% 0.02 in 0 W/m2
18:46 41 °F 38.8 °F 30.2 in NW 2 mph 4 mph 92% 0.02 in 0 W/m2
18:51 41 °F 38.8 °F 30.2 in WNW 0.9 mph 7 mph 92% 0.02 in 0 W/m2
18:56 40.8 °F 38.5 °F 30.2 in WSW 2 mph 4 mph 91% 0.02 in 0 W/m2
19:01 40.8 °F 38.5 °F 30.2 in Calm   3 mph 91% 0.02 in 0 W/m2
19:06 40.6 °F 38.3 °F 30.2 in WNW 6.9 mph 10 mph 91% 0.02 in 0 W/m2
19:11 40.6 °F 38.3 °F 30.2 in WNW 4 mph 4 mph 91% 0.02 in 0 W/m2
19:16 40.6 °F 38.3 °F 30.2 in WNW 2.9 mph 4 mph 91% 0.02 in 0 W/m2
19:21 40.5 °F 38.1 °F 30.2 in West 0.9 mph 4 mph 91% 0.02 in 0 W/m2
19:27 40.5 °F 38.3 °F 30.2 in NW 0.9 mph 3 mph 92% 0.02 in 0 W/m2
19:32 40.5 °F 38.1 °F 30.2 in West 4 mph 4 mph 91% 0.02 in 0 W/m2
19:37 40.3 °F 37.9 °F 30.2 in NW 0.9 mph 9 mph 91% 0.02 in 0 W/m2
19:42 40.1 °F 37.8 °F 30.2 in WNW 4 mph 8 mph 91% 0.02 in 0 W/m2
19:47 39.9 °F 37.6 °F 30.2 in West 2.9 mph 9 mph 91% 0.02 in 0 W/m2
19:52 39.9 °F 37.6 °F 30.2 in WSW 2 mph 5 mph 91% 0.02 in 0 W/m2
19:57 39.7 °F 37.4 °F 30.2 in WNW 2 mph 7 mph 91% 0.02 in 0 W/m2
20:02 39.7 °F 37.4 °F 30.2 in Calm   1 mph 91% 0.02 in 0 W/m2
20:07 39.7 °F 37.4 °F 30.2 in WNW 2 mph 3 mph 91% 0.02 in 0 W/m2
20:12 39.7 °F 37.6 °F 30.2 in WNW 0.9 mph 2 mph 92% 0.01 in 0 W/m2
20:17 39.7 °F 37.6 °F 30.2 in Calm   3 mph 92% 0.01 in 0 W/m2
20:22 39.7 °F 37.6 °F 30.2 in WNW 0.9 mph 2 mph 92% 0.01 in 0 W/m2
20:27 39.6 °F 37.4 °F 30.2 in West 2 mph 4 mph 92% 0.01 in 0 W/m2
20:32 39.6 °F 37.4 °F 30.2 in WNW 0.9 mph 3 mph 92% 0.01 in 0 W/m2
20:37 39.6 °F 37.4 °F 30.2 in WSW 2.9 mph 3 mph 92% 0.01 in 0 W/m2
20:42 39.6 °F 37.4 °F 30.2 in West 0.9 mph 3 mph 92% 0.02 in 0 W/m2
20:47 39.6 °F 37.4 °F 30.2 in Calm   3 mph 92% 0.01 in 0 W/m2
20:52 39.6 °F 37.4 °F 30.2 in WNW 2.9 mph 3 mph 92% 0.01 in 0 W/m2
20:57 39.6 °F 37.8 °F 30.2 in WNW 2 mph 2 mph 93% 0.02 in 0 W/m2
21:02 39.4 °F 37.6 °F 30.2 in West 2 mph 2 mph 93% 0.02 in 0 W/m2
21:07 39.4 °F 37.6 °F 30.2 in WNW 0.9 mph 3 mph 93% 0.02 in 0 W/m2
21:12 39.4 °F 37.6 °F 30.2 in WNW 2 mph 7 mph 93% 0.02 in 0 W/m2
21:17 39.4 °F 37.6 °F 30.2 in NNW 0.9 mph 2 mph 93% 0.02 in 0 W/m2
21:22 39.4 °F 37.6 °F 30.2 in WNW 2 mph 7 mph 93% 0.02 in 0 W/m2
21:27 39.2 °F 37.4 °F 30.2 in West 2 mph 3 mph 93% 0.03 in 0 W/m2
21:32 39.2 °F 37.4 °F 30.2 in WNW 0.9 mph 3 mph 93% 0.03 in 0 W/m2
21:37 39.2 °F 37.4 °F 30.2 in Calm     93% 0.03 in 0 W/m2
21:42 39.2 °F 37.4 °F 30.2 in Calm     93% 0.03 in 0 W/m2
21:47 39 °F 37.2 °F 30.2 in Calm     93% 0.03 in 0 W/m2
21:52 39 °F 37.2 °F 30.2 in Calm     93% 0.03 in 0 W/m2
21:57 39 °F 37.2 °F 30.2 in Calm     93% 0.02 in 0 W/m2
22:02 39 °F 37.2 °F 30.2 in Calm     93% 0.02 in 0 W/m2
22:07 38.8 °F 37 °F 30.2 in Calm     93% 0.02 in 0 W/m2
22:12 38.8 °F 37 °F 30.2 in Calm     93% 0.02 in 0 W/m2
22:17 38.8 °F 37 °F 30.2 in Calm     93% 0.02 in 0 W/m2
22:22 38.8 °F 37 °F 30.2 in Calm     93% 0.02 in 0 W/m2
22:27 38.8 °F 37 °F 30.2 in Calm     93% 0.02 in 0 W/m2
22:32 38.8 °F 37.2 °F 30.2 in Calm     94% 0.02 in 0 W/m2
22:37 38.8 °F 37.2 °F 30.2 in Calm     94% 0.02 in 0 W/m2
22:42 38.8 °F 37.2 °F 30.2 in Calm     94% 0.02 in 0 W/m2
22:47 38.8 °F 37.2 °F 30.2 in Calm     94% 0.02 in 0 W/m2
22:52 38.8 °F 37.2 °F 30.2 in Calm     94% 0.02 in 0 W/m2
22:57 38.7 °F 37 °F 30.2 in Calm   1 mph 94% 0.02 in 0 W/m2
23:02 38.7 °F 37 °F 30.2 in Calm     94% 0.02 in 0 W/m2
23:07 38.7 °F 37 °F 30.2 in Calm   1 mph 94% 0.02 in 0 W/m2
23:12 38.7 °F 37 °F 30.2 in Calm     94% 0.02 in 0 W/m2
23:17 38.7 °F 37 °F 30.2 in Calm     94% 0.02 in 0 W/m2
23:22 38.7 °F 37 °F 30.2 in Calm     94% 0.02 in 0 W/m2
23:27 38.7 °F 37 °F 30.2 in Calm     94% 0.02 in 0 W/m2
23:32 38.7 °F 37 °F 30.2 in Calm     94% 0.02 in 0 W/m2
23:37 38.7 °F 37 °F 30.2 in Calm     94% 0.02 in 0 W/m2
23:42 38.7 °F 37 °F 30.2 in Calm     94% 0.02 in 0 W/m2
23:47 38.7 °F 37 °F 30.2 in Calm     94% 0.02 in 0 W/m2
23:52 38.7 °F 37.4 °F 30.2 in Calm     95% 0.02 in 0 W/m2
23:57 38.7 °F 37.4 °F 30.2 in Calm     95% 0.02 in 0 W/m2
Juneau County Weather
Compliments of Weather Underground - 4 mb